Location: Boiro
(42.6475°N, 8.8834°W)
Time: 05:58:25
(UTC+01:00)

METEOR M2 - Visible Passes

Search period start: 27 January 2022 00:00
Search period end: 06 February 2022 00:00
Orbit: 818 x 827 km, 98.4° (Epoch: 26 January)

Date Brightness Start Highest point End Pass type
(mag) Time Alt. Az. Time Alt. Az. Time Alt. Az.
27 Jan ? 07:44:44 10° NE 07:48:28 19° E 07:52:12 10° SE visible
27 Jan ? 19:07:36 10° SE 19:12:18 33° ENE 19:17:02 10° N visible
27 Jan ? 20:47:36 10° SSW 20:52:24 34° W 20:57:15 10° NNW visible
28 Jan ? 07:26:12 10° ENE 07:28:18 12° E 07:30:23 10° ESE visible
28 Jan ? 20:27:12 10° S 20:32:22 51° W 20:37:36 10° NNW visible
29 Jan ? 20:07:04 10° S 20:12:24 76° WSW 20:17:47 10° NNW visible
30 Jan ? 19:47:11 10° SSE 19:52:30 73° ENE 19:57:51 10° N visible
30 Jan ? 21:30:20 10° WSW 21:33:13 15° W 21:36:07 10° NW visible
31 Jan ? 08:04:30 10° NE 08:09:09 29° E 08:13:46 10° SSE visible
31 Jan ? 19:27:31 10° SE 19:32:38 49° ENE 19:37:48 10° N visible
31 Jan ? 21:08:58 10° SW 21:13:03 22° W 21:17:11 10° NW visible
01 Feb ? 07:45:14 10° NE 07:49:02 19° E 07:52:50 10° SE visible
01 Feb ? 19:08:06 10° SE 19:12:51 33° ENE 19:17:37 10° N visible
01 Feb ? 20:48:11 10° SSW 20:52:58 33° W 20:57:47 10° NNW visible
02 Feb ? 07:26:37 10° ENE 07:28:52 13° E 07:31:07 10° ESE visible
02 Feb ? 20:27:46 10° S 20:32:56 49° W 20:38:08 10° NNW visible
03 Feb ? 20:07:37 10° S 20:12:57 75° WSW 20:18:20 10° NNW visible
04 Feb ? 19:47:43 10° SSE 19:53:02 75° ENE 19:58:25 10° N visible
04 Feb ? 21:30:59 10° WSW 21:33:46 14° W 21:36:35 10° WNW visible
05 Feb ? 08:05:02 10° NE 08:09:43 29° E 08:14:22 10° SSE visible
05 Feb ? 19:28:02 10° SE 19:33:10 50° ENE 19:38:22 10° N visible
05 Feb ? 21:09:34 10° SW 21:13:37 22° W 21:17:41 10° NW visible
